Weather History for MZBZ - March, 2012

Change the Weather History Date:

Wednesday, March 28, 2012

  Actual Average Record
Temperature  
Mean Temperature 78 °F -  
Max Temperature 85 °F 87 °F - (-1)
Min Temperature 72 °F 73 °F - (-1)
Cooling Degree Days 14    
Growing Degree Days 28 (Base 50)    
Moisture  
Dew Point 69 °F    
Average Humidity 68    
Maximum Humidity 88    
Minimum Humidity 46    
Precipitation  
Precipitation 0.00 in 0.07 in - ()
Sea Level Pressure  
Sea Level Pressure 29.98 in    
Wind  
Wind Speed 5 mph ()    
Max Wind Speed 10 mph    
Max Gust Speed -    
Visibility 7.9 miles    
Events      
Averages and records for this station are not official NWS values.
T = Trace of Precipitation, MM = Missing Value Source: Averaged Metar Reports

Daily Weather History Graph

Daily Weather History Graph

Search for Another Location

Airport or City:

Trip Planner

Search our weather history database for the weather conditions in past years. The results will help you decide how hot, cold, wet, or windy it might be!

Date:

Astronomy

Mar. 28, 2012 Rise Set
Actual Time 5:50 AM CST 6:05 PM CST
Civil Twilight 5:28 AM CST 6:27 PM CST
Nautical Twilight 5:03 AM CST 6:52 PM CST
Astronomical Twilight 4:38 AM CST 7:18 PM CST
Moon 9:50 AM CST (3/28) 11:14 PM CST (3/28)
Length of Visible Light 12h 58m
Length of Day
12h 15m
Waxing Crescent, 31% of the Moon is Illuminated
Mar 28
Waxing Crescent
Mar 30
First Quarter
Apr 6
Full
Apr 13
Last Quarter
Apr 21
New

Hourly Weather History & Observations

Time (CST) Temp. Heat Index Dew Point Humidity Pressure Visibility Wind Dir Wind Speed Gust Speed Precip Events Conditions
12:00 AM 75 °F - 70 °F 81% 30.00 in 12 mi ESE 3.5 mph - -  
12:00 AM 75.2 °F - 69.8 °F 83% 29.98 in - North - - N/A   Partly Cloudy
3:00 AM 74 °F - 70 °F 83% 29.95 in 12 mi ESE 3.5 mph - -   Scattered Clouds
3:00 AM 73.4 °F - 69.8 °F 88% 29.95 in 6.2 mi ESE 3.5 mph - N/A   Partly Cloudy
6:00 AM 74 °F - 68 °F 76% 29.99 in 12 mi East 4.6 mph - -   Scattered Clouds
6:00 AM 73.4 °F - 68.0 °F 83% 29.98 in 6.2 mi East 4.6 mph - N/A   Partly Cloudy
7:00 AM 77.0 °F - 69.8 °F 78% 29.98 in 6.2 mi ESE 4.6 mph - N/A   Partly Cloudy
8:00 AM 80.6 °F 83.9 °F 69.8 °F 70% 30.01 in 6.2 mi East 5.8 mph - N/A   Scattered Clouds
9:00 AM 82 °F - 69 °F 56% 30.03 in 12 mi East 8.1 mph - -   Scattered Clouds
9:00 AM 82.4 °F 86.3 °F 69.8 °F 66% 30.02 in 6.2 mi East 8.1 mph - N/A   Partly Cloudy
10:00 AM 84.2 °F 88.4 °F 69.8 °F 62% 30.02 in 6.2 mi East 8.1 mph - N/A   Partly Cloudy
11:00 AM 84.2 °F 87.3 °F 68.0 °F 58% 30.02 in 6.2 mi ENE 10.4 mph - N/A   Partly Cloudy
12:00 PM 83 °F - 66 °F 46% 30.01 in 12 mi ENE 9.2 mph - -  
12:00 PM 84.2 °F 86.6 °F 66.2 °F 55% 30.00 in 6.2 mi ENE 9.2 mph - N/A   Partly Cloudy
1:00 PM 84.2 °F 88.4 °F 69.8 °F 62% 29.97 in 6.2 mi ENE 10.4 mph - N/A   Scattered Clouds
2:00 PM 84.2 °F 87.3 °F 68.0 °F 58% 29.94 in 6.2 mi ENE 10.4 mph - N/A   Partly Cloudy
3:00 PM 84.2 °F 86.6 °F 66.2 °F 55% 29.93 in 6.2 mi East 9.2 mph - N/A   Partly Cloudy
4:00 PM 84.2 °F 87.3 °F 68.0 °F 58% 29.93 in 6.2 mi ENE 8.1 mph - N/A   Partly Cloudy
5:00 PM 82.4 °F 85.4 °F 68.0 °F 62% 29.93 in 6.2 mi East 6.9 mph - N/A   Partly Cloudy
6:00 PM 80 °F - 70 °F 64% 29.95 in 12 mi East 5.8 mph - -   Scattered Clouds
6:00 PM 80.6 °F 83.9 °F 69.8 °F 70% 29.94 in 6.2 mi East 5.8 mph - N/A   Partly Cloudy
9:00 PM 75.2 °F - 69.8 °F 83% 29.95 in 6.2 mi ESE 3.5 mph - N/A   Partly Cloudy